Location: Chippewa Lake
(41.0698°N, 81.9010°W)
Time: 05:41:26
(UTC+00:00)

SL-8 Rocket - Pass Details

Date: 02 October 2021
Orbit: 958 x 990 km, 82.9° (Epoch: 17 October)

Event Time Altitude Azimuth Distance (km) Brightness Sun altitude
Rises 10:19:20 0° 6° (N) 3,704 7.2 -13.3°
Reaches altitude 10° 10:22:42 10° 23° (NNE) 2,747 6.8 -12.7°
Maximum altitude 10:27:06 19° 68° (ENE) 2,126 6.9 -11.8°
Drops below altitude 10° 10:31:27 10° 113° (ESE) 2,720 7.4 -11.0°
Sets 10:34:43 0° 130° (SE) 3,657 7.8 -10.4°
